World > North America > United States > New York

Hourly Pompey, NY Regional Weather

Feedback E-mail the Weather

Latest News

Pompey, NY Weather Maps

°F °C°F °C
Pompey Weather Map
UTC Time: 5/27/2022, 14:43
Your Time:

Pompey, NY Regional Weather

Expires:202205271500;;649595
ASUS41 KALY 271410
RWRALY

NEW YORK STATE HOURLY WEATHER ROUNDUP
NATIONAL WEATHER SERVICE ALBANY NY
1000 AM EDT FRI MAY 27 2022

NOTE: "FAIR" INDICATES FEW OR NO CLOUDS BELOW 12,000 FEET WITH NO
SIGNIFICANT WEATHER AND/OR NO OBSTRUCTIONS TO VISIBILITY.


NYZ005>009-017-018-044>046-055-056-271500-
CENTRAL

  
CITY           SKY/WX    TMP DP  RH WIND       PRES   REMARKS
FULTON         LGT RAIN  69  64  84 S8        29.81F                  
SYRACUSE       CLOUDY    72  63  73 S15       29.82S                  
ROME           PTSUNNY   72  64  76 S8        29.84F                  
ELMIRA         CLOUDY    71  62  73 SW12G23   29.83F                  
BINGHAMTON     CLOUDY    65  61  87 SW9G16    29.90S                  
MONTICELLO     CLOUDY    68  63  84 S9        29.95F                  
$$


SKY/WX - Weather  TMP - Temperature  DP - Dew Point  RH - Humidity
WIND - Wind Direction/Speed PRES - Barometric Pressure VSB - Visibility
WCI - Wind Chill Index E13G22 Wind - East Wind 13 mph/Gusts of 22 mph

Trending Headlines

Pompey Radar Loop



Pompey Quick Facts


National Two Day Weather Forecast


E-mail the Pompey Weather Forecast

Voice your opinion or tell us about page issues...